Flag for Finland Weather past 2 weeks in Pori, Finland

37 °F

Light rain. Overcast.

Feels Like: 30 °F
Forecast: 38 / 47 °F
Wind: 10 mph from South

Location: Pori Airport

Current Time: Nov 26, 2015 at 7:49:25 AM

Latest Report: Nov 26, 2015 at 6:50 AM

Visibility: N/A

Pressure: 29.62 "Hg

Humidity: 93%

Dew point: 36 °F

Location of PoriLocation

Historic Weather in Pori — Graph


Pori temperature yesterday

Maximum temperature yesterday: 41 °F (at 1:20 PM)
Minimum temperature yesterday: 37 °F (at 12:20 AM)
Average temperature yesterday: 40 °F

Past Weeks' High & Low Weather Summary

High46 °F (Nov 13, 9:20 PM)100% (Nov 11, 6:20 AM)29.95 "Hg (Nov 11, 6:20 AM)
Low21 °F (Nov 23, 9:50 PM)75% (Nov 22, 5:50 PM)29.06 "Hg (Nov 21, 1:50 PM)
Average36 °F95%29.49 "Hg
* Reported Nov 11 5:20 AM — Nov 26 5:50 AM, Pori, Weather by CustomWeather, © 2015

Note: Actual official high and low records may vary slightly from our data, if they occured in-between our weather recording intervals... More about our weather records


Pori weather history for previous 24 hours

Time TempWeatherWind HumidityBarometerVisibility
5:50 AM
Thu, Nov 26
37 °FLight rain. Mostly cloudy.10 mph93%29.59 "HgN/A
4:50 AM37 °FLight rain. Passing clouds.12 mph100%29.59 "HgN/A
4:20 AM37 °FLight rain. Partly cloudy.10 mph100%29.59 "HgN/A
3:50 AM37 °FLight rain. Partly cloudy.10 mph100%29.59 "HgN/A
3:20 AM39 °FLight rain. Partly cloudy.12 mph87%29.59 "HgN/A
2:20 AM39 °FLight rain. Overcast.9 mph87%29.59 "HgN/A
1:50 AM39 °FLight rain. Mostly cloudy.13 mph93%29.59 "HgN/A
12:20 AM39 °FLight rain. Mostly cloudy.12 mph93%29.56 "HgN/A
11:50 PM
Wed, Nov 25
39 °FLight rain. Overcast.12 mph93%29.56 "HgN/A
11:20 PM39 °FLight rain. Mostly cloudy.9 mph93%29.56 "HgN/A
10:50 PM39 °FLight rain. Overcast.9 mph93%29.56 "HgN/A
10:20 PM39 °FLight rain. Mostly cloudy.12 mph93%29.56 "HgN/A
9:50 PM39 °FLight rain. Mostly cloudy.8 mph100%29.56 "HgN/A
9:20 PM41 °FLight rain. Mostly cloudy.13 mph87%29.56 "HgN/A
8:50 PM41 °FLight rain. Mostly cloudy.14 mph87%29.56 "HgN/A
8:20 PM41 °FLight rain. Mostly cloudy.10 mph93%29.53 "HgN/A
7:50 PM41 °FLight rain. Mostly cloudy.10 mph93%29.53 "HgN/A
7:20 PM41 °FLight rain. Mostly cloudy.10 mph93%29.53 "HgN/A
6:50 PM41 °FLight rain. Mostly cloudy.10 mph93%29.53 "HgN/A
6:20 PM41 °FLight rain. Mostly cloudy.9 mph93%29.53 "HgN/A
5:50 PM41 °FLight rain. Overcast.10 mph93%29.53 "HgN/A
5:20 PM41 °FLight rain. Mostly cloudy.9 mph93%29.50 "HgN/A
4:50 PM41 °FLight rain. Mostly cloudy.10 mph87%29.50 "HgN/A
4:20 PM41 °FLight rain. Overcast.10 mph93%29.50 "HgN/A
3:50 PM41 °FLight rain. Overcast.10 mph93%29.50 "HgN/A
3:20 PM41 °FLight rain. Mostly cloudy.12 mph93%29.50 "HgN/A
2:50 PM41 °FLight rain. Cloudy.10 mph93%29.50 "HgN/A
2:20 PM41 °FLight rain. Overcast.10 mph93%29.50 "HgN/A
1:50 PM41 °FLight rain. More clouds than sun.13 mph87%29.50 "HgN/A
1:20 PM41 °FLight rain. Partly sunny.10 mph93%29.50 "HgN/A
12:50 PM39 °FLight rain. Cloudy.9 mph100%29.50 "HgN/A
12:20 PM39 °FLight rain. Mostly cloudy.9 mph93%29.50 "HgN/A
11:50 AM39 °FLight rain. Cloudy.9 mph100%29.50 "HgN/A
11:20 AM39 °FLight rain. Mostly cloudy.9 mph93%29.50 "HgN/A
10:50 AM39 °FDrizzle. Cloudy.9 mph93%29.50 "Hg5 mi
10:20 AM39 °FLight rain. Mostly cloudy.10 mph93%29.50 "HgN/A
9:50 AM39 °FLight rain. Broken clouds.12 mph93%29.50 "HgN/A
9:20 AM39 °FLight rain. Mostly cloudy.9 mph93%29.50 "HgN/A
8:50 AM39 °FLight rain. Overcast.10 mph93%29.50 "HgN/A
8:20 AM39 °FLight rain. Mostly cloudy.9 mph93%29.50 "HgN/A
7:50 AM39 °FLight rain. Overcast.8 mph93%29.50 "HgN/A
7:20 AM39 °FLight rain. Overcast.9 mph93%29.53 "HgN/A
Weather by CustomWeather, © 2015

See weather overviewHow to use our weather pages